• Join FlightAware (Why Join?)
  • Login
  • US Flag GB Flag 
13:16 EST


 

Airport Tracker/Info


-or-


 

Live Flight TrackerFlight Track Log ✈ EJM685 ✈ 01-May-2013 ✈ KTEB - KPBI

Flight Track Log - Related Links

Times and Time Zones

All times are in EDT time to prevent confusion due to time zone crossing. See the EJM685 flight status page for this flight to view local times or setup timezone preferences in your user account.

Time Position Orientation Groundspeed Altitude Reporting Facility
EDT Latitude Longitude Course Direction KTS MPH feet Rate Location/Type
17:19 40.8333 -74.1000 252° West 202 232 1,600  Level New York TRACON
17:20 40.8167 -74.1667 252° West 211 243 1,600 1,050 Level New York TRACON
17:21 40.7833 -74.2333 237° Southwest 245 282 3,700 2,050 Climbing New York TRACON
17:22 40.7167 -74.2500 191° South 267 307 5,700 1,150 Climbing New York TRACON
17:23 40.6167 -74.2667 187° South 276 318 6,000 192 Climbing New York TRACON
17:24 40.5500 -74.2667 180° South 275 316 6,100  Climbing New York TRACON
17:26 40.4033 -74.2050 162° South 266 306 6,000 371 Descending New York Center
17:27 40.3742 -74.1300 117° Southeast 215 247 7,300 1,385 Climbing New York Center
17:28 40.3258 -74.0758 139° Southeast 229 264 8,700 1,835 Climbing New York Center
17:29 40.2494 -74.1214 204° Southwest 264 304 11,000 2,765 Climbing New York Center
17:32 40.0331 -74.2394 203° Southwest 359 413 18,100 2,778 Climbing Washington Center
17:33 39.9358 -74.3169 211° Southwest 391 450 20,400 1,780 Climbing Washington Center
17:34 39.8389 -74.4106 217° Southwest 424 488 21,600 1,475 Climbing Washington Center
17:35 39.7525 -74.5200 224° Southwest 436 502 23,300 1,770 Climbing Washington Center
17:36 39.6639 -74.6372 226° Southwest 441 507 25,200 1,918 Climbing Washington Center
17:37 39.5647 -74.7678 225° Southwest 452 520 27,200 1,983 Climbing Washington Center
17:38 39.4739 -74.8897 226° Southwest 465 535 29,100 1,664 Climbing Washington Center
17:39 39.3744 -75.0144 224° Southwest 478 550 30,500 1,770 Climbing Washington Center
17:40 39.2708 -75.1278 220° Southwest 486 559 32,700 2,521 Climbing Washington Center
17:41 39.1356 -75.1822 197° South 492 566 35,500 2,773 Climbing Washington Center
17:42 39.0044 -75.2364 198° South 492 566 38,200 2,656 Climbing Washington Center
17:43 38.8753 -75.2903 198° South 497 572 40,900 2,331 Climbing Washington Center
17:44 38.7544 -75.3442 199° South 477 549 42,900 1,373 Climbing Washington Center
17:45 38.6317 -75.3922 197° South 470 541 43,600 655 Climbing Washington Center
17:46 38.5025 -75.4483 199° South 476 548 44,200 1,033 Climbing Washington Center
17:47 38.3733 -75.4964 196° South 481 554 45,700 1,210 Climbing Washington Center
17:48 38.2669 -75.5547 203° Southwest 481 554 46,600 655 Climbing Washington Center
17:49 38.1522 -75.6286 207° Southwest 475 547 47,000 198 Climbing Washington Center
17:50 38.0250 -75.7156 208° Southwest 470 541 47,000  Level Washington Center
17:51 37.9039 -75.7944 207° Southwest 481 554 47,000  Level Washington Center
17:52 37.7911 -75.8519 202° Southwest 481 554 47,000  Level Washington Center
17:53 37.6639 -75.9433 210° Southwest 481 554 47,000  Level Washington Center
17:54 37.5447 -76.0136 205° Southwest 481 554 47,000  Level Washington Center
17:55 37.4275 -76.0836 205° Southwest 476 548 47,000  Level Washington Center
17:56 37.3314 -76.1431 206° Southwest 476 548 47,000  Level Washington Center
17:57 37.1956 -76.2175 204° Southwest 482 555 47,000  Level Washington Center
17:58 37.0742 -76.2894 205° Southwest 487 560 47,000  Level Washington Center
17:59 36.9547 -76.3664 207° Southwest 487 560 47,000  Level Washington Center
18:00 36.8331 -76.4378 205° Southwest 487 560 47,000  Level Washington Center
18:01 36.6969 -76.5194 206° Southwest 487 560 47,000  Level Washington Center
18:02 36.5672 -76.5747 199° South 487 560 47,000  Level Washington Center
18:03 36.4394 -76.6350 201° Southwest 492 566 47,000  Level Washington Center
18:04 36.3117 -76.6900 199° South 492 566 47,000  Level Washington Center
18:05 36.1817 -76.7450 199° South 492 566 47,000  Level Washington Center
18:06 36.0539 -76.8047 201° Southwest 492 566 47,000  Level Washington Center
18:07 35.9239 -76.8592 199° South 492 566 47,000  Level Washington Center
18:08 35.7939 -76.9186 200° South 492 566 47,000  Level Washington Center
18:09 35.6683 -76.9728 199° South 492 566 47,000  Level Washington Center
18:10 35.5425 -77.0267 199° South 487 560 47,000  Level Washington Center
18:11 35.4311 -77.0783 201° Southwest 487 560 47,000  Level Washington Center
18:12 35.3033 -77.1319 199° South 487 560 47,000  Level Washington Center
18:13 35.1731 -77.1903 200° South 492 566 47,000  Level Washington Center
18:14 35.0450 -77.2461 200° South 492 566 47,000  Level Washington Center
18:15 34.9192 -77.2994 199° South 492 566 47,000  Level Washington Center
18:16 34.7867 -77.3597 200° South 481 554 47,000  Level Washington Center
18:17 34.6608 -77.4150 200° South 475 547 47,000  Level Washington Center
18:18 34.5347 -77.4653 198° South 475 547 47,000  Level Washington Center
18:19 34.4069 -77.5075 195° South 475 547 47,000  Level Washington Center
18:21 34.1175 -77.5978 194° South 486 559 47,000  Level Jacksonville Center
18:22 33.9856 -77.6383 194° South 491 565 47,000  Level Jacksonville Center
18:23 33.8539 -77.6814 195° South 491 565 47,000  Level Jacksonville Center
18:24 33.7406 -77.7156 194° South 480 552 47,000  Level Jacksonville Center
18:25 33.5944 -77.7639 195° South 486 559 47,000  Level Jacksonville Center
18:26 33.4667 -77.8061 195° South 486 559 47,000  Level Jacksonville Center
18:27 33.3369 -77.8483 195° South 486 559 47,000  Level Jacksonville Center
18:28 33.2072 -77.8881 194° South 486 559 47,000  Level Jacksonville Center
18:29 33.0772 -77.9275 194° South 486 559 47,000  Level Jacksonville Center
18:30 32.9494 -77.9692 195° South 486 559 47,000  Level Jacksonville Center
18:31 32.8194 -78.0083 194° South 486 559 47,000  Level Jacksonville Center
18:32 32.6917 -78.0500 195° South 486 559 47,000  Level Jacksonville Center
18:33 32.5658 -78.0861 194° South 486 559 47,000  Level Jacksonville Center
18:34 32.4400 -78.1272 195° South 480 552 47,000  Level Jacksonville Center
18:35 32.3142 -78.1658 195° South 474 545 47,000  Level Jacksonville Center
18:36 32.1883 -78.2067 195° South 468 539 47,000  Level Jacksonville Center
18:37 32.0872 -78.2339 193° South 468 539 47,000  Level Jacksonville Center
18:38 31.9511 -78.2800 196° South 468 539 47,000  Level Jacksonville Center
18:39 31.8253 -78.3206 195° South 468 539 47,000  Level Jacksonville Center
18:40 31.7014 -78.3583 195° South 473 544 47,000  Level Jacksonville Center
18:41 31.5733 -78.3986 195° South 468 539 47,000  Level Jacksonville Center
18:42 31.4475 -78.4389 195° South 468 539 47,000  Level Jacksonville Center
18:43 31.3194 -78.4814 196° South 468 539 47,000  Level Jacksonville Center
18:44 31.1975 -78.5164 194° South 468 539 47,000  Level Jacksonville Center
18:45 31.0736 -78.5583 196° South 468 539 47,000  Level Jacksonville Center
18:46 30.9292 -78.6014 194° South 473 544 47,000  Level Jacksonville Center
18:47 30.8031 -78.6433 196° South 478 550 47,000  Level Jacksonville Center
18:49 30.5536 -78.7244 196° South 466 536 47,000  Level Miami Center
18:50 30.4281 -78.7678 197° South 471 542 47,000  Level Miami Center
18:51 30.3044 -78.8136 198° South 478 550 47,000  Level Miami Center
18:52 30.1789 -78.8569 197° South 484 557 47,000  Level Miami Center
18:53 30.0508 -78.9050 198° South 478 550 47,000  Level Miami Center
18:54 29.9442 -78.9458 198° South 478 550 47,000  Level Miami Center
18:55 29.8183 -78.9914 197° South 478 550 47,000  Level Miami Center
18:56 29.6928 -79.0175 190° South 468 539 47,000 -400 Level Miami Center
18:57 29.5611 -79.0411 189° South 468 539 46,200 -1,200 Descending Miami Center
18:58 29.4356 -79.0647 189° South 468 539 44,600 -1,700 Descending Miami Center
18:59 29.3122 -79.0861 189° South 460 529 42,800 -1,700 Descending Miami Center
19:00 29.1906 -79.1122 191° South 460 529 41,200 -1,700 Descending Miami Center
19:01 29.0714 -79.1336 189° South 448 516 39,400 -1,750 Descending Miami Center
19:02 28.9522 -79.1525 188° South 438 504 37,700 -1,750 Descending Miami Center
19:03 28.8331 -79.1714 188° South 438 504 35,900 -1,800 Descending Miami Center
19:04 28.7053 -79.1947 189° South 444 511 34,100 -1,850 Descending Miami Center
19:05 28.5797 -79.2181 189° South 455 524 32,200 -1,950 Descending Miami Center
19:06 28.4417 -79.2436 189° South 462 532 30,200 -1,950 Descending Miami Center
19:07 28.3075 -79.2689 189° South 476 548 28,300 -1,900 Descending Miami Center
19:08 28.1797 -79.2922 189° South 486 559 26,400 -1,850 Descending Miami Center
19:09 28.0542 -79.3131 188° South 477 549 24,600 -1,650 Descending Miami Center
19:10 27.9389 -79.3364 190° South 451 519 23,100 -1,600 Descending Miami Center
19:11 27.8406 -79.3531 189° South 420 483 21,400 -1,650 Descending Miami Center
19:12 27.7381 -79.3719 189° South 392 451 19,800 -1,700 Descending Miami Center
19:13 27.6228 -79.3928 189° South 386 444 18,000 -1,650 Descending Miami Center
19:14 27.5200 -79.4117 189° South 377 434 16,500 -1,500 Descending Miami Center
19:15 27.4256 -79.4400 195° South 364 419 15,000 -1,500 Descending Miami Center
19:16 27.3478 -79.4661 197° South 345 397 13,500 -1,450 Descending Miami Center
19:17 27.2639 -79.4925 196° South 328 377 12,100 -1,550 Descending Miami Center
19:18 27.1814 -79.5489 211° Southwest 312 359 10,400 -1,550 Descending Miami Center
19:19 27.1339 -79.6272 236° Southwest 301 346 9,000 -1,000 Descending Miami Center
19:20 27.0972 -79.6986 240° Southwest 291 335 8,400 -500 Descending Miami Center
19:21 27.0644 -79.7656 241° Southwest 272 313 8,000 -200 Descending Miami Center
19:22 27.0253 -79.8414 240° Southwest 267 307 8,000 -350 Level Miami Center
19:23 26.9903 -79.9150 242° Southwest 267 307 7,300 -650 Descending Miami Center
19:24 26.9492 -79.9864 237° Southwest 261 300 6,700 -800 Descending Miami Center
19:25 26.8981 -80.0314 218° Southwest 261 300 5,700 -1,050 Descending Miami Center
19:26 26.8428 -80.0789 217° Southwest 267 307 4,600 -1,250 Descending Miami Center
19:27 26.7994 -80.1497 236° Southwest 256 295 3,200 -1,100 Descending Miami Center
19:28 26.7583 -80.2139 234° Southwest 256 295 2,400 -800 Descending Miami Center
19:30 26.6832 -80.0956 250° West  Level Estimated
19:37 26.6832 -80.0956 110° East  Level Estimated
19:38 26.6832 -80.0956 110° East  Level Estimated
19:39 26.6832 -80.0956 110° East  Level Estimated
19:40 26.6832 -80.0956 110° East  Level Estimated